Flag for Germany Weather past 2 weeks in Papenburg, Lower Saxony, Germany

Now
43 °F

Light freezing rain. Low clouds.


Feels Like: 41 °F
Forecast: 32 / 46 °F
Wind: 5 mph from South

Location: Emden-Koenigspolder

Current Time: Feb 27, 2015 at 1:08:20 AM

Latest Report: Feb 27, 2015 at 12:00 AM


Visibility: 2 mi

Pressure: 29.76 "Hg

Humidity: 98%

Dew point: 43 °F

Location of PapenburgLocation

Historic Weather in Papenburg — Graph

°F

Papenburg temperature yesterday

Maximum temperature yesterday: 48 °F (at 5:00 PM)
Minimum temperature yesterday: 38 °F (at 5:00 AM)
Average temperature yesterday: 42 °F

Past Weeks' High & Low Weather Summary

 TemperatureHumidityPressure
High49 °F (Feb 14, 4:00 PM)100% (Feb 17, 3:00 AM)30.68 "Hg (Feb 17, 3:00 AM)
Low28 °F (Feb 17, 2:00 AM)60% (Feb 18, 3:00 PM)29.18 "Hg (Feb 23, 7:00 AM)
Average38 °F87%29.91 "Hg
* Reported Midnight between Feb 11 and Feb 12 — Midnight between Feb 26 and Feb 27, Papenburg, Weather by CustomWeather, © 2015

Note: Actual official high and low records may vary slightly from our data, if they occured in-between our weather recording intervals... More about our weather records

Advertising

Papenburg weather history for previous 24 hours

 ConditionsComfort  
Time TempWeatherWind HumidityBarometerVisibility
12:00 AM
Fri, Feb 27
43 °FLight freezing rain. Low clouds.5 mph98%29.76 "Hg2 mi
11:00 PM
Thu, Feb 26
43 °FLight rain. Low clouds.6 mph97%29.76 "Hg2 mi
9:00 PM44 °FLight freezing rain. Low clouds.7 mph97%29.78 "Hg1 mi
8:00 PM44 °FLight rain. Low clouds.7 mph95%29.80 "HgN/A
7:00 PM46 °FDrizzle. Low clouds.8 mph87%29.80 "Hg6 mi
6:00 PM46 °FOvercast.7 mph81%29.81 "Hg11 mi
5:00 PM48 °FOvercast.8 mph75%29.83 "Hg12 mi
3:00 PM47 °FOvercast.9 mph74%29.88 "Hg7 mi
2:00 PM47 °FOvercast.9 mph74%29.91 "Hg5 mi
1:00 PM45 °FOvercast.9 mph79%29.95 "Hg6 mi
12:00 PM43 °FFog.8 mph84%29.98 "Hg4 mi
11:00 AM41 °FFog.8 mph88%30.01 "Hg4 mi
10:00 AM40 °FFog.7 mph89%30.03 "Hg4 mi
9:00 AM39 °FFog.5 mph95%30.03 "Hg2 mi
7:00 AM39 °FFog.5 mph97%30.05 "Hg2 mi
6:00 AM39 °FFog.5 mph97%30.06 "Hg2 mi
5:00 AM38 °FFog.2 mph98%30.06 "Hg1 mi
3:00 AM40 °FFog.2 mph96%30.07 "Hg2 mi
2:00 AM39 °FLow clouds.2 mph99%30.07 "Hg2 mi
1:00 AM39 °FFog.2 mph97%30.07 "Hg3 mi
Weather by CustomWeather, © 2015

See weather overviewHow to use our weather pages